Location: Belfast
(54.5830°N, 5.9330°W)
Time: 03:12:45
(UTC+00:00)

ISS - Pass Details

Date: 28 January 2021
Orbit: 417 x 422 km, 51.6° (Epoch: 26 February)

Event Time Altitude Azimuth Distance (km) Brightness Sun altitude
Rises 17:42:09 0° 249° (WSW) 2,372 2.8 -7.0°
Reaches altitude 10° 17:44:18 10° 243° (WSW) 1,509 0.8 -7.3°
Maximum altitude 17:47:33 45° 169° (S) 587 -2.9 -7.7°
Drops below altitude 10° 17:50:49 10° 96° (E) 1,514 -1.5 -8.2°
Enters shadow 17:51:00 - 95° (E) 1,581 -1.4 -8.2°
